Location: ??????
(55.2000°N, 38.3000°E)
Time: 00:32:48
(UTC+00:00)

Meteor 1-11 - Pass Details

Date: 15 November 2025
Orbit: 830 x 894 km, 81.2° (Epoch: 11 December)

Event Time Altitude Azimuth Distance (km) Brightness Sun altitude
Rises 03:26:42 0° 192° (SSW) 3,498 7.4 -13.0°
Reaches altitude 10° 03:29:09 10° 192° (SSW) 2,562 6.7 -12.7°
Maximum altitude 03:35:01 89° 289° (WNW) 901 4.3 -11.8°
Drops below altitude 10° 03:40:53 10° 14° (NNE) 2,563 6.7 -11.0°
Sets 03:43:20 0° 15° (NNE) 3,499 7.4 -10.7°
